Home > Weather > Bünde > Past weeks

Flag for Germany Past Weather in Bünde, North Rhine-Westphalia, Germany — Yesterday and Last 2 Weeks

Now
63 °F

Mild.


Feels Like: 63 °F
Forecast: 52 / 66 °F
Wind: 5 mph from East

Location: Bueckeburg

Current Time: Jun 25, 2016 at 12:36:07 PM

Latest Report: Jun 25, 2016 at 11:20 AM


Visibility: N/A

Pressure: 29.95 "Hg

Humidity: 94%

Dew Point: 61 °F

Location of BündeLocation

Past Weather in Bünde — Graph

°F

Bünde Temperature Yesterday

Maximum temperature yesterday: 82 °F (at 1:20 PM)
Minimum temperature yesterday: 64 °F (at 3:20 AM)
Average temperature yesterday: 73 °F

High & Low Weather Summary for the Past Weeks

 TemperatureHumidityPressure
High90 °F (Jun 23, 4:20 PM)100% (Jun 12, 10:20 PM)30.24 "Hg (Jun 12, 10:20 PM)
Low50 °F (Jun 20, 1:20 AM)38% (Jun 11, 4:20 PM)29.45 "Hg (Jun 14, 4:20 PM)
Average64 °F78%29.86 "Hg
* Reported Jun 10 10:20 AM — Jun 25 10:20 AM, Bünde, Weather by CustomWeather, © 2016

Note: Actual official high and low records may vary slightly from our data, if they occured in-between our weather recording intervals... More about our weather records

Advertising

Bünde Weather History for the Previous 24 Hours

Scroll right to see more
 ConditionsComfort  
Time TempWeatherWind HumidityBarometerVisibility
10:20 AM
Sat, Jun 25
63 °FMild.7 mph94%29.95 "HgN/A
9:20 AM63 °FMild.6 mph94%29.95 "HgN/A
8:20 AM63 °FMild.5 mph100%29.95 "HgN/A
7:20 AM63 °FMild.7 mph100%29.98 "HgN/A
6:20 AM63 °FMild.3 mph100%29.98 "HgN/A
5:20 AM63 °FFog.6 mph100%29.98 "Hg1 mi
4:20 AM64 °FFog.3 mph94%29.98 "Hg2 mi
3:20 AM64 °FSprinkles. Fog.7 mph94%30.01 "Hg3 mi
2:49 AM64 °FFog.5 mph94%30.01 "Hg3 mi
2:20 AM64 °FFog.6 mph100%30.01 "Hg2 mi
1:20 AM66 °FFog.2 mph94%30.04 "Hg3 mi
12:20 AM68 °FFog.5 mph94%30.04 "Hg3 mi
11:20 PM
Fri, Jun 24
68 °FPassing clouds.3 mph94%30.04 "Hg4 mi
10:49 PM68 °FPassing clouds.2 mph94%30.01 "HgN/A
10:20 PM68 °FPartly sunny.3 mph94%30.04 "HgN/A
9:20 PM68 °FFog.6 mph100%30.04 "Hg3 mi
8:20 PM70 °FSprinkles. Partly sunny.7 mph88%30.04 "HgN/A
7:20 PM73 °FThundershowers. Partly sunny.2 mph83%30.04 "HgN/A
6:20 PM73 °FPartly sunny.5 mph83%30.01 "HgN/A
5:20 PM73 °FThunderstorms. Partly sunny.6 mph89%29.98 "HgN/A
4:58 PM75 °FThunderstorms. Broken clouds.10 mph89%30.01 "HgN/A
4:20 PM79 °FThunderstorms. Broken clouds.6 mph84%29.98 "Hg4 mi
4:00 PM81 °FThundershowers. Partly sunny.6 mph79%30.01 "HgN/A
3:20 PM82 °FPartly sunny.2 mph66%30.01 "HgN/A
2:20 PM82 °FSprinkles. Broken clouds.7 mph66%30.01 "HgN/A
1:20 PM82 °FBroken clouds.9 mph58%30.01 "HgN/A
12:20 PM81 °FPartly sunny.6 mph58%30.04 "HgN/A
Weather by CustomWeather, © 2016

See weather overviewHow to use our weather pages